When you browse on this site, cookies collect data to enhance your experience and personalize the content and advertising you see.
Visit our Privacy Policy to learn more. By continuing to use the site, you agree to this use of cookies and data.
  • In Österreich
  • Länderverzeichnis
  • Für 7 Tage
  • Wassertemperatur
  • Satellitenkarten
  • Wetterkarte
  • News
  • Widgets
  • user-avatar
    Anmelden

    Stündliche Wetter Lubosinek

    Heute, 21 Februar, Donnerstag

    Zeit Temperatur Niederschläge Wind Luftdruck Luftfeuchtigkeit
    00:00 +6°C° 0 mm 2 m/S 762 mmHg 87%
    01:00 +5°C° 0 mm 2 m/S 762 mmHg 91%
    02:00 +5°C° 0 mm 2 m/S 762 mmHg 89%
    03:00 +4°C° 0 mm 3 m/S 762 mmHg 88%
    04:00 +4°C° 0 mm 3 m/S 762 mmHg 86%
    05:00 +4°C° 0 mm 3 m/S 762 mmHg 86%
    06:00 +4°C° 0 mm 3 m/S 762 mmHg 86%
    07:00 +4°C° 0 mm 4 m/S 762 mmHg 86%
    08:00 +5°C° 0.1 mm 4 m/S 762 mmHg 84%
    09:00 +5°C° 0.1 mm 4 m/S 761 mmHg 82%
    10:00 +6°C° 0.1 mm 4 m/S 761 mmHg 80%
    11:00 +6°C° 0.2 mm 5 m/S 761 mmHg 80%
    12:00 +6°C° 0.2 mm 5 m/S 761 mmHg 80%
    13:00 +5°C° 0.2 mm 6 m/S 761 mmHg 80%
    14:00 +7°C° 0.2 mm 5 m/S 761 mmHg 80%
    15:00 +7°C° 0.2 mm 5 m/S 761 mmHg 81%
    16:00 +7°C° 0.2 mm 5 m/S 760 mmHg 81%
    17:00 +7°C° 0.2 mm 5 m/S 760 mmHg 83%
    18:00 +7°C° 0.2 mm 5 m/S 760 mmHg 86%
    19:00 +7°C° 0.2 mm 5 m/S 760 mmHg 88%
    20:00 +7°C° 0.4 mm 5 m/S 760 mmHg 89%
    21:00 +7°C° 0.4 mm 4 m/S 760 mmHg 90%
    22:00 +7°C° 0.4 mm 4 m/S 760 mmHg 91%
    23:00 +7°C° 0.2 mm 4 m/S 761 mmHg 91%

    Morgen, 22 Februar, Freitag

    Zeit Temperatur Niederschläge Wind Luftdruck Luftfeuchtigkeit
    00:00 +7°C° 0.2 mm 5 m/S 761 mmHg 90%
    01:00 +7°C° 0.2 mm 5 m/S 762 mmHg 90%
    02:00 +6°C° 0.3 mm 5 m/S 763 mmHg 87%
    03:00 +5°C° 0.3 mm 5 m/S 764 mmHg 84%
    04:00 +3°C° 0.3 mm 6 m/S 764 mmHg 81%
    05:00 +2°C° 0 mm 6 m/S 766 mmHg 79%
    06:00 0°C° 0 mm 5 m/S 767 mmHg 76%
    07:00 -1°C° 0 mm 5 m/S 768 mmHg 74%
    08:00 -1°C° 0 mm 5 m/S 769 mmHg 67%
    09:00 -1°C° 0 mm 5 m/S 771 mmHg 60%
    10:00 -1°C° 0 mm 4 m/S 772 mmHg 54%
    11:00 0°C° 0 mm 4 m/S 772 mmHg 50%
    12:00 0°C° 0 mm 4 m/S 773 mmHg 46%
    13:00 +1°C° 0 mm 4 m/S 774 mmHg 43%
    14:00 +2°C° 0 mm 3 m/S 774 mmHg 42%
    15:00 +2°C° 0 mm 3 m/S 774 mmHg 42%
    16:00 +2°C° 0 mm 3 m/S 775 mmHg 42%
    17:00 +2°C° 0 mm 2 m/S 775 mmHg 45%
    18:00 +1°C° 0 mm 2 m/S 775 mmHg 49%
    19:00 -1°C° 0 mm 2 m/S 776 mmHg 53%
    20:00 -2°C° 0 mm 2 m/S 776 mmHg 53%
    21:00 -2°C° 0 mm 2 m/S 777 mmHg 53%
    22:00 -2°C° 0 mm 2 m/S 777 mmHg 53%
    23:00 -2°C° 0 mm 2 m/S 777 mmHg 52%

    übermorgen, 23 Februar, Samstag

    Zeit Temperatur Niederschläge Wind Luftdruck Luftfeuchtigkeit
    00:00 -2°C° 0 mm 2 m/S 777 mmHg 52%
    01:00 -2°C° 0 mm 2 m/S 777 mmHg 51%
    02:00 -3°C° 0 mm 2 m/S 777 mmHg 50%
    03:00 -3°C° 0 mm 2 m/S 777 mmHg 50%
    04:00 -1°C° 0 mm 1 m/S 777 mmHg 50%
    05:00 -1°C° 0 mm 1 m/S 777 mmHg 50%
    06:00 -1°C° 0 mm 1 m/S 777 mmHg 50%
    07:00 -1°C° 0 mm 1 m/S 777 mmHg 51%
    08:00 0°C° 0 mm 1 m/S 777 mmHg 46%
    09:00 +1°C° 0 mm 1 m/S 778 mmHg 41%
    10:00 +1°C° 0 mm 2 m/S 778 mmHg 36%
    11:00 +2°C° 0 mm 2 m/S 778 mmHg 32%
    12:00 +2°C° 0 mm 2 m/S 777 mmHg 29%
    13:00 +3°C° 0 mm 2 m/S 777 mmHg 26%
    14:00 +4°C° 0 mm 1 m/S 777 mmHg 27%
    15:00 +4°C° 0 mm 1 m/S 776 mmHg 27%
    16:00 +4°C° 0 mm 1 m/S 776 mmHg 28%
    17:00 +3°C° 0 mm 1 m/S 776 mmHg 31%
    18:00 +2°C° 0 mm 1 m/S 776 mmHg 33%
    19:00 +1°C° 0 mm 1 m/S 776 mmHg 36%
    20:00 +1°C° 0 mm 1 m/S 776 mmHg 36%
    21:00 +1°C° 0 mm 1 m/S 775 mmHg 37%
    22:00 +1°C° 0 mm 1 m/S 775 mmHg 37%
    23:00 +1°C° 0 mm 1 m/S 775 mmHg 38%

    24 Februar, Sonntag

    Zeit Temperatur Niederschläge Wind Luftdruck Luftfeuchtigkeit
    00:00 +1°C° 0 mm 1 m/S 775 mmHg 38%
    01:00 +1°C° 0 mm 1 m/S 775 mmHg 38%
    02:00 +1°C° 0 mm 1 m/S 775 mmHg 38%
    03:00 +1°C° 0 mm 1 m/S 774 mmHg 38%
    04:00 +1°C° 0 mm 1 m/S 774 mmHg 38%
    05:00 +1°C° 0 mm 1 m/S 774 mmHg 38%
    06:00 +1°C° 0 mm 1 m/S 774 mmHg 38%
    07:00 -1°C° 0 mm 2 m/S 774 mmHg 39%
    08:00 +1°C° 0 mm 2 m/S 774 mmHg 37%
    09:00 +2°C° 0 mm 2 m/S 774 mmHg 35%
    10:00 +3°C° 0 mm 3 m/S 774 mmHg 33%
    11:00 +4°C° 0 mm 3 m/S 773 mmHg 35%
    12:00 +5°C° 0 mm 3 m/S 773 mmHg 36%
    13:00 +7°C° 0 mm 3 m/S 773 mmHg 38%
    14:00 +7°C° 0 mm 3 m/S 773 mmHg 42%
    15:00 +7°C° 0 mm 2 m/S 772 mmHg 47%
    16:00 +7°C° 0 mm 2 m/S 772 mmHg 52%
    17:00 +6°C° 0 mm 2 m/S 772 mmHg 58%
    18:00 +5°C° 0 mm 2 m/S 772 mmHg 64%
    19:00 +4°C° 0 mm 2 m/S 773 mmHg 69%
    20:00 +3°C° 0 mm 2 m/S 773 mmHg 72%
    21:00 +3°C° 0 mm 2 m/S 773 mmHg 74%
    22:00 +3°C° 0 mm 2 m/S 773 mmHg 76%
    23:00 +2°C° 0 mm 2 m/S 773 mmHg 78%

    25 Februar, Montag

    Zeit Temperatur Niederschläge Wind Luftdruck Luftfeuchtigkeit
    00:00 +2°C° 0 mm 2 m/S 773 mmHg 79%
    01:00 +2°C° 0 mm 2 m/S 773 mmHg 80%
    02:00 +1°C° 0 mm 2 m/S 773 mmHg 82%
    03:00 +1°C° 0 mm 2 m/S 773 mmHg 83%
    04:00 +1°C° 0 mm 2 m/S 772 mmHg 85%
    05:00 +1°C° 0 mm 2 m/S 773 mmHg 88%
    06:00 +1°C° 0 mm 2 m/S 773 mmHg 90%
    07:00 +2°C° 0 mm 1 m/S 773 mmHg 93%
    08:00 +2°C° 0 mm 2 m/S 773 mmHg 88%
    09:00 +4°C° 0 mm 2 m/S 774 mmHg 84%
    10:00 +5°C° 0 mm 2 m/S 774 mmHg 80%
    11:00 +7°C° 0 mm 2 m/S 774 mmHg 74%
    12:00 +8°C° 0 mm 2 m/S 774 mmHg 68%
    13:00 +11°C° 0 mm 1 m/S 774 mmHg 62%
    14:00 +11°C° 0 mm 1 m/S 773 mmHg 62%
    15:00 +10°C° 0 mm 0 m/S 773 mmHg 62%
    16:00 +10°C° 0 mm 0 m/S 773 mmHg 62%
    17:00 +9°C° 0 mm 0 m/S 773 mmHg 67%
    18:00 +7°C° 0 mm 0 m/S 773 mmHg 72%
    19:00 +6°C° 0 mm 0 m/S 773 mmHg 77%
    20:00 +6°C° 0 mm 0 m/S 773 mmHg 80%
    21:00 +5°C° 0 mm 0 m/S 773 mmHg 82%
    22:00 +5°C° 0 mm 0 m/S 773 mmHg 84%
    23:00 +5°C° 0 mm 1 m/S 772 mmHg 86%

    26 Februar, Dienstag

    Zeit Temperatur Niederschläge Wind Luftdruck Luftfeuchtigkeit
    00:00 +5°C° 0 mm 1 m/S 772 mmHg 87%
    01:00 +5°C° 0 mm 1 m/S 772 mmHg 89%
    02:00 +4°C° 0 mm 2 m/S 771 mmHg 90%
    03:00 +4°C° 0 mm 2 m/S 771 mmHg 92%
    04:00 +3°C° 0 mm 2 m/S 770 mmHg 93%
    05:00 +3°C° 0 mm 2 m/S 770 mmHg 93%
    06:00 +3°C° 0 mm 2 m/S 770 mmHg 94%
    07:00 +3°C° 0 mm 2 m/S 769 mmHg 94%
    08:00 +3°C° 0 mm 3 m/S 769 mmHg 85%
    09:00 +5°C° 0 mm 3 m/S 769 mmHg 77%
    10:00 +6°C° 0 mm 4 m/S 769 mmHg 68%
    11:00 +8°C° 0 mm 4 m/S 768 mmHg 63%
    12:00 +10°C° 0 mm 4 m/S 768 mmHg 58%
    13:00 +10°C° 0 mm 5 m/S 767 mmHg 53%
    14:00 +10°C° 0 mm 5 m/S 767 mmHg 54%
    15:00 +12°C° 0 mm 5 m/S 767 mmHg 55%
    16:00 +12°C° 0 mm 5 m/S 766 mmHg 56%
    17:00 +11°C° 0 mm 4 m/S 766 mmHg 62%
    18:00 +9°C° 0 mm 3 m/S 767 mmHg 68%
    19:00 +8°C° 0 mm 3 m/S 767 mmHg 74%
    20:00 +7°C° 0 mm 3 m/S 767 mmHg 79%
    21:00 +6°C° 0 mm 2 m/S 767 mmHg 84%
    22:00 +6°C° 0 mm 2 m/S 767 mmHg 89%
    23:00 +5°C° 0 mm 2 m/S 767 mmHg 91%
    Mehr zeigen